Time,TemperatureF,DewpointF,PressureIn,WindDirection,WindDirectionDegrees,WindSpeedMPH,WindSpeedGustMPH,Humidity,HourlyPrecipIn,Conditions,Clouds,dailyrainin,SoftwareType,DateUTC
2013-08-03 00:02:00,77.0,59.0,29.89,NW,323,0.0,5.0,54,0.00,,,0.03,,2013-08-03 04:02:00,
2013-08-03 00:12:00,77.0,59.0,29.89,NW,323,0.0,5.0,54,0.00,,,0.03,,2013-08-03 04:12:00,
2013-08-03 00:22:00,77.0,59.0,29.90,WNW,285,0.0,5.0,54,0.00,,,0.02,,2013-08-03 04:22:00,
2013-08-03 00:33:00,77.0,60.0,29.89,NNW,346,1.0,3.0,55,0.00,,,0.02,,2013-08-03 04:33:00,
2013-08-03 00:43:00,77.0,60.0,29.89,NNW,346,1.0,3.0,55,0.00,,,0.02,,2013-08-03 04:43:00,
2013-08-03 00:53:00,76.0,59.0,29.89,NW,311,1.0,3.0,55,0.00,,,0.02,,2013-08-03 04:53:00,
2013-08-03 01:02:00,76.0,59.0,29.89,WNW,288,0.0,5.0,56,0.00,,,0.02,,2013-08-03 05:02:00,
2013-08-03 01:12:00,76.0,59.0,29.89,WNW,288,0.0,5.0,56,0.00,,,0.02,,2013-08-03 05:12:00,
2013-08-03 01:22:00,76.0,60.0,29.89,WNW,286,0.0,3.0,57,0.00,,,0.01,,2013-08-03 05:22:00,
2013-08-03 01:32:00,75.0,59.0,29.88,North,349,0.0,4.0,58,0.00,,,0.01,,2013-08-03 05:32:00,
2013-08-03 01:42:00,75.0,59.0,29.88,North,349,0.0,4.0,58,0.00,,,0.01,,2013-08-03 05:42:00,
2013-08-03 01:53:00,75.0,60.0,29.88,NNW,345,0.0,2.0,59,0.00,,,0.01,,2013-08-03 05:53:00,
2013-08-03 02:02:00,74.0,59.0,29.88,ENE,64,0.0,1.0,60,0.00,,,0.01,,2013-08-03 06:02:00,
2013-08-03 02:12:00,74.0,59.0,29.88,ENE,64,0.0,1.0,60,0.00,,,0.01,,2013-08-03 06:12:00,
2013-08-03 02:23:00,74.0,59.0,29.87,North,5,0.0,1.0,60,0.00,,,0.00,,2013-08-03 06:23:00,
2013-08-03 02:32:00,73.0,58.0,29.87,NE,50,0.0,1.0,60,0.00,,,0.00,,2013-08-03 06:32:00,
2013-08-03 02:42:00,73.0,58.0,29.87,NE,50,0.0,1.0,60,0.00,,,0.00,,2013-08-03 06:42:00,
2013-08-03 02:52:00,73.0,59.0,29.87,SSE,158,0.0,1.0,61,0.00,,,0.00,,2013-08-03 06:52:00,
2013-08-03 03:02:00,73.0,59.0,29.87,West,259,0.0,3.0,61,0.00,,,0.00,,2013-08-03 07:02:00,
2013-08-03 03:12:00,73.0,59.0,29.87,West,259,0.0,3.0,61,0.00,,,0.00,,2013-08-03 07:12:00,
2013-08-03 03:22:00,73.0,59.0,29.87,NNE,12,0.0,2.0,61,0.00,,,0.00,,2013-08-03 07:22:00,
2013-08-03 03:43:00,73.0,59.0,29.85,NNW,338,0.0,4.0,61,0.00,,,0.00,,2013-08-03 07:43:00,
2013-08-03 03:53:00,73.0,59.0,29.85,ESE,122,0.0,4.0,61,0.00,,,0.00,,2013-08-03 07:53:00,
2013-08-03 04:02:00,73.0,59.0,29.86,SSW,208,0.0,2.0,61,0.00,,,0.00,,2013-08-03 08:02:00,
2013-08-03 04:12:00,73.0,59.0,29.86,SSW,208,0.0,2.0,61,0.00,,,0.00,,2013-08-03 08:12:00,
2013-08-03 04:22:00,73.0,59.0,29.86,North,4,0.0,4.0,61,0.00,,,0.00,,2013-08-03 08:22:00,
2013-08-03 04:32:00,73.0,59.0,29.86,SSW,200,0.0,3.0,61,0.00,,,0.00,,2013-08-03 08:32:00,
2013-08-03 04:43:00,73.0,59.0,29.86,SSW,200,0.0,3.0,61,0.00,,,0.00,,2013-08-03 08:43:00,
2013-08-03 04:52:00,73.0,59.0,29.86,SE,126,0.0,2.0,61,0.00,,,0.00,,2013-08-03 08:52:00,
2013-08-03 05:02:00,73.0,59.0,29.87,East,86,0.0,2.0,61,0.00,,,0.00,,2013-08-03 09:02:00,
2013-08-03 05:12:00,73.0,59.0,29.87,East,86,0.0,2.0,61,0.00,,,0.00,,2013-08-03 09:12:00,
2013-08-03 05:22:00,73.0,58.0,29.88,SE,144,0.0,2.0,60,0.00,,,0.00,,2013-08-03 09:22:00,
2013-08-03 05:32:00,73.0,58.0,29.87,NNW,345,0.0,2.0,59,0.00,,,0.00,,2013-08-03 09:32:00,
2013-08-03 05:43:00,73.0,58.0,29.87,NNW,345,0.0,2.0,59,0.00,,,0.00,,2013-08-03 09:43:00,
2013-08-03 05:53:00,73.0,58.0,29.87,SE,135,0.0,1.0,60,0.00,,,0.00,,2013-08-03 09:53:00,
2013-08-03 06:02:00,73.0,58.0,29.88,ENE,77,0.0,2.0,60,0.00,,,0.00,,2013-08-03 10:02:00,
2013-08-03 06:12:00,73.0,58.0,29.88,ENE,77,0.0,2.0,60,0.00,,,0.00,,2013-08-03 10:12:00,
2013-08-03 06:22:00,73.0,58.0,29.87,SSW,193,0.0,1.0,60,0.00,,,0.00,,2013-08-03 10:22:00,
2013-08-03 06:33:00,73.0,59.0,29.88,ESE,105,0.0,1.0,62,0.00,,,0.00,,2013-08-03 10:33:00,
2013-08-03 06:42:00,73.0,59.0,29.88,ESE,105,0.0,1.0,62,0.00,,,0.00,,2013-08-03 10:42:00,
2013-08-03 06:53:00,73.0,60.0,29.88,NE,39,0.0,2.0,63,0.00,,,0.00,,2013-08-03 10:53:00,
2013-08-03 07:02:00,74.0,61.0,29.88,NW,322,0.0,3.0,64,0.00,,,0.00,,2013-08-03 11:02:00,
2013-08-03 07:12:00,74.0,61.0,29.88,NW,322,0.0,3.0,64,0.00,,,0.00,,2013-08-03 11:12:00,
2013-08-03 07:23:00,74.0,62.0,29.88,NNW,332,0.0,3.0,66,0.00,,,0.00,,2013-08-03 11:23:00,
2013-08-03 07:43:00,73.0,61.0,29.88,NNW,335,0.0,3.0,67,0.00,,,0.00,,2013-08-03 11:43:00,
2013-08-03 07:53:00,74.0,61.0,29.88,NNW,342,0.0,2.0,65,0.00,,,0.00,,2013-08-03 11:53:00,
2013-08-03 08:03:00,74.0,60.0,29.88,NW,316,4.0,9.0,62,0.00,,,0.00,,2013-08-03 12:03:00,
2013-08-03 08:12:00,74.0,60.0,29.88,NW,316,4.0,9.0,62,0.00,,,0.00,,2013-08-03 12:12:00,
2013-08-03 08:22:00,74.0,61.0,29.88,SSW,203,0.0,2.0,63,0.00,,,0.00,,2013-08-03 12:22:00,
2013-08-03 08:43:00,75.0,61.0,29.88,SSE,158,0.0,3.0,61,0.00,,,0.00,,2013-08-03 12:43:00,
2013-08-03 08:52:00,74.0,60.0,29.89,WNW,302,3.0,7.0,61,0.00,,,0.00,,2013-08-03 12:52:00,
2013-08-03 09:02:00,74.0,60.0,29.89,WNW,302,3.0,7.0,61,0.00,,,0.00,,2013-08-03 13:02:00,
2013-08-03 09:12:00,73.0,59.0,29.88,WNW,295,1.0,4.0,62,0.00,,,0.00,,2013-08-03 13:12:00,
2013-08-03 09:22:00,73.0,60.0,29.90,North,5,2.0,8.0,64,0.00,,,0.00,,2013-08-03 13:22:00,
2013-08-03 09:33:00,74.0,61.0,29.90,North,356,1.0,7.0,63,0.00,,,0.00,,2013-08-03 13:33:00,
2013-08-03 09:43:00,74.0,61.0,29.90,North,356,1.0,7.0,63,0.00,,,0.00,,2013-08-03 13:43:00,
2013-08-03 09:52:00,73.0,61.0,29.89,North,5,0.0,8.0,66,0.00,,,0.00,,2013-08-03 13:52:00,
2013-08-03 10:02:00,73.0,61.0,29.89,NW,322,1.0,5.0,65,0.00,,,0.00,,2013-08-03 14:02:00,
2013-08-03 10:13:00,73.0,61.0,29.89,NW,322,1.0,5.0,65,0.00,,,0.00,,2013-08-03 14:13:00,
2013-08-03 10:22:00,74.0,61.0,29.90,NE,39,1.0,8.0,64,0.00,,,0.00,,2013-08-03 14:22:00,
2013-08-03 10:33:00,74.0,61.0,29.90,NE,39,1.0,8.0,64,0.00,,,0.00,,2013-08-03 14:33:00,
2013-08-03 10:43:00,73.0,62.0,29.89,NW,311,0.0,3.0,69,0.00,,,0.00,,2013-08-03 14:43:00,
2013-08-03 10:52:00,73.0,63.0,29.90,NW,326,0.0,5.0,70,0.00,,,0.00,,2013-08-03 14:52:00,
2013-08-03 11:02:00,73.0,63.0,29.90,NW,326,0.0,5.0,70,0.00,,,0.00,,2013-08-03 15:02:00,
2013-08-03 11:12:00,72.0,63.0,29.89,NNW,329,0.0,6.0,73,0.00,,,0.00,,2013-08-03 15:12:00,
2013-08-03 11:23:00,72.0,63.0,29.89,NNW,329,0.0,6.0,73,0.00,,,0.00,,2013-08-03 15:23:00,
2013-08-03 11:32:00,72.0,63.0,29.89,NNW,329,2.0,5.0,73,0.00,,,0.00,,2013-08-03 15:32:00,
2013-08-03 11:43:00,72.0,64.0,29.89,NW,319,2.0,5.0,75,0.00,,,0.00,,2013-08-03 15:43:00,
2013-08-03 11:53:00,72.0,64.0,29.89,NW,319,1.0,5.0,75,0.01,,,0.01,,2013-08-03 15:53:00,
2013-08-03 12:02:00,72.0,64.0,29.89,NW,319,1.0,5.0,75,0.01,,,0.01,,2013-08-03 16:02:00,
2013-08-03 12:13:00,73.0,65.0,29.90,NNW,328,0.0,5.0,75,0.01,,,0.01,,2013-08-03 16:13:00,
2013-08-03 12:23:00,73.0,65.0,29.90,NNW,328,0.0,5.0,75,0.01,,,0.01,,2013-08-03 16:23:00,
2013-08-03 12:33:00,73.0,65.0,29.90,West,267,1.0,6.0,75,0.01,,,0.01,,2013-08-03 16:33:00,
2013-08-03 12:43:00,73.0,65.0,29.89,SW,235,0.0,5.0,75,0.01,,,0.01,,2013-08-03 16:43:00,
2013-08-03 12:53:00,73.0,65.0,29.89,West,271,1.0,3.0,76,0.00,,,0.01,,2013-08-03 16:53:00,
2013-08-03 13:03:00,73.0,65.0,29.89,West,271,1.0,3.0,76,0.00,,,0.01,,2013-08-03 17:03:00,
2013-08-03 13:12:00,73.0,65.0,29.89,SSW,205,0.0,5.0,76,0.00,,,0.01,,2013-08-03 17:12:00,
2013-08-03 13:22:00,74.0,66.0,29.89,NW,316,1.0,5.0,76,0.00,,,0.01,,2013-08-03 17:22:00,
2013-08-03 13:32:00,74.0,66.0,29.89,NW,316,1.0,5.0,76,0.00,,,0.01,,2013-08-03 17:32:00,
2013-08-03 13:43:00,73.0,66.0,29.88,ENE,64,0.0,4.0,79,0.01,,,0.02,,2013-08-03 17:43:00,
2013-08-03 13:52:00,73.0,66.0,29.88,NW,311,1.0,4.0,78,0.01,,,0.02,,2013-08-03 17:52:00,
2013-08-03 14:02:00,73.0,66.0,29.88,NW,311,1.0,4.0,78,0.01,,,0.02,,2013-08-03 18:02:00,
2013-08-03 14:12:00,74.0,66.0,29.87,NNE,15,1.0,3.0,76,0.01,,,0.02,,2013-08-03 18:12:00,
2013-08-03 14:22:00,76.0,67.0,29.87,WNW,286,0.0,5.0,74,0.01,,,0.02,,2013-08-03 18:22:00,
2013-08-03 14:32:00,76.0,67.0,29.87,WNW,286,0.0,5.0,74,0.01,,,0.02,,2013-08-03 18:32:00,
2013-08-03 14:43:00,77.0,65.0,29.88,West,262,3.0,8.0,67,0.00,,,0.02,,2013-08-03 18:43:00,
2013-08-03 14:53:00,77.0,65.0,29.88,West,262,3.0,8.0,67,0.00,,,0.02,,2013-08-03 18:53:00,
2013-08-03 15:02:00,77.0,65.0,29.88,East,98,0.0,4.0,67,0.00,,,0.02,,2013-08-03 19:02:00,
2013-08-03 15:12:00,78.0,66.0,29.88,SSE,147,0.0,3.0,66,0.00,,,0.02,,2013-08-03 19:12:00,
2013-08-03 15:22:00,79.0,66.0,29.87,SW,229,1.0,6.0,64,0.00,,,0.02,,2013-08-03 19:22:00,
2013-08-03 15:32:00,79.0,66.0,29.87,SW,229,1.0,6.0,64,0.00,,,0.02,,2013-08-03 19:32:00,
2013-08-03 15:43:00,79.0,65.0,29.86,SSE,156,0.0,5.0,63,0.00,,,0.02,,2013-08-03 19:43:00,
2013-08-03 15:52:00,80.0,66.0,29.85,ENE,61,0.0,6.0,62,0.00,,,0.02,,2013-08-03 19:52:00,
2013-08-03 16:02:00,80.0,66.0,29.85,ENE,61,0.0,6.0,62,0.00,,,0.02,,2013-08-03 20:02:00,
2013-08-03 16:12:00,79.0,65.0,29.85,SE,129,2.0,7.0,63,0.00,,,0.02,,2013-08-03 20:12:00,
2013-08-03 16:32:00,80.0,65.0,29.85,SE,141,1.0,5.0,61,0.00,,,0.02,,2013-08-03 20:32:00,
2013-08-03 16:42:00,80.0,64.0,29.84,ESE,115,2.0,6.0,58,0.00,,,0.02,,2013-08-03 20:42:00,
2013-08-03 16:52:00,81.0,64.0,29.83,SE,141,2.0,6.0,56,0.00,,,0.02,,2013-08-03 20:52:00,
2013-08-03 17:02:00,81.0,64.0,29.83,SE,141,2.0,6.0,56,0.00,,,0.02,,2013-08-03 21:02:00,
2013-08-03 17:12:00,81.0,64.0,29.83,SE,141,2.0,6.0,56,0.00,,,0.02,,2013-08-03 21:12:00,
2013-08-03 17:22:00,81.0,64.0,29.82,East,85,1.0,5.0,56,0.00,,,0.02,,2013-08-03 21:22:00,
2013-08-03 17:32:00,81.0,64.0,29.82,East,85,1.0,5.0,56,0.00,,,0.02,,2013-08-03 21:32:00,
2013-08-03 17:42:00,82.0,65.0,29.83,NNW,336,2.0,6.0,56,0.00,,,0.02,,2013-08-03 21:42:00,
2013-08-03 17:52:00,80.0,64.0,29.83,SSW,205,2.0,8.0,59,0.00,,,0.02,,2013-08-03 21:52:00,
2013-08-03 18:02:00,80.0,64.0,29.83,SSW,205,2.0,8.0,59,0.00,,,0.02,,2013-08-03 22:02:00,
2013-08-03 18:12:00,80.0,65.0,29.84,NW,307,1.0,5.0,61,0.00,,,0.02,,2013-08-03 22:12:00,
2013-08-03 18:22:00,80.0,66.0,29.84,WNW,287,1.0,8.0,63,0.00,,,0.02,,2013-08-03 22:22:00,
2013-08-03 18:33:00,80.0,66.0,29.84,WNW,287,1.0,8.0,63,0.00,,,0.02,,2013-08-03 22:33:00,
2013-08-03 18:43:00,79.0,66.0,29.84,NW,325,3.0,6.0,64,0.00,,,0.02,,2013-08-03 22:43:00,
2013-08-03 18:52:00,79.0,66.0,29.85,West,269,2.0,8.0,64,0.00,,,0.02,,2013-08-03 22:52:00,
2013-08-03 19:02:00,79.0,66.0,29.85,West,269,2.0,8.0,64,0.00,,,0.02,,2013-08-03 23:02:00,
2013-08-03 19:12:00,78.0,65.0,29.84,NW,304,0.0,7.0,65,0.00,,,0.02,,2013-08-03 23:12:00,
2013-08-03 19:22:00,77.0,65.0,29.85,NNW,333,0.0,3.0,67,0.00,,,0.02,,2013-08-03 23:22:00,
2013-08-03 19:32:00,77.0,65.0,29.85,NNW,333,0.0,3.0,67,0.00,,,0.02,,2013-08-03 23:32:00,
2013-08-03 19:42:00,76.0,65.0,29.84,West,271,0.0,4.0,68,0.00,,,0.02,,2013-08-03 23:42:00,
2013-08-03 19:52:00,75.0,65.0,29.84,WNW,287,0.0,3.0,70,0.00,,,0.02,,2013-08-03 23:52:00,
2013-08-03 20:03:00,75.0,65.0,29.84,WNW,287,0.0,3.0,70,0.00,,,0.02,,2013-08-04 00:03:00,
2013-08-03 20:12:00,75.0,65.0,29.84,WNW,298,1.0,3.0,71,0.00,,,0.02,,2013-08-04 00:12:00,
2013-08-03 20:22:00,74.0,65.0,29.84,SE,135,1.0,5.0,73,0.00,,,0.02,,2013-08-04 00:22:00,
2013-08-03 20:32:00,74.0,65.0,29.84,SE,135,1.0,5.0,73,0.00,,,0.02,,2013-08-04 00:32:00,
2013-08-03 20:42:00,74.0,65.0,29.85,NNE,15,0.0,3.0,73,0.00,,,0.02,,2013-08-04 00:42:00,
2013-08-03 20:52:00,74.0,65.0,29.85,NNE,15,0.0,3.0,73,0.00,,,0.02,,2013-08-04 00:52:00,
2013-08-03 21:02:00,74.0,65.0,29.85,NW,308,0.0,3.0,73,0.00,,,0.02,,2013-08-04 01:02:00,
2013-08-03 21:12:00,74.0,65.0,29.85,NW,308,0.0,3.0,73,0.00,,,0.02,,2013-08-04 01:12:00,
2013-08-03 21:22:00,73.0,64.0,29.85,North,5,1.0,6.0,74,0.00,,,0.02,,2013-08-04 01:22:00,
2013-08-03 21:32:00,73.0,64.0,29.85,North,5,1.0,6.0,74,0.00,,,0.02,,2013-08-04 01:32:00,
2013-08-03 21:42:00,73.0,64.0,29.85,North,5,1.0,6.0,74,0.00,,,0.02,,2013-08-04 01:42:00,
2013-08-03 21:53:00,73.0,64.0,29.85,North,5,1.0,6.0,74,0.00,,,0.02,,2013-08-04 01:53:00,
2013-08-03 22:03:00,73.0,65.0,29.86,NW,319,0.0,4.0,75,0.00,,,0.02,,2013-08-04 02:03:00,
2013-08-03 22:12:00,73.0,65.0,29.86,NW,319,0.0,4.0,75,0.00,,,0.02,,2013-08-04 02:12:00,
2013-08-03 22:22:00,73.0,65.0,29.86,NW,319,0.0,4.0,75,0.00,,,0.02,,2013-08-04 02:22:00,
2013-08-03 22:32:00,73.0,65.0,29.86,NE,43,0.0,2.0,76,0.00,,,0.02,,2013-08-04 02:32:00,
2013-08-03 22:42:00,73.0,65.0,29.86,NE,43,0.0,2.0,76,0.00,,,0.02,,2013-08-04 02:42:00,
2013-08-03 22:52:00,74.0,65.0,29.85,North,351,0.0,3.0,74,0.00,,,0.02,,2013-08-04 02:52:00,
2013-08-03 23:02:00,74.0,65.0,29.85,North,351,0.0,3.0,74,0.00,,,0.02,,2013-08-04 03:02:00,
2013-08-03 23:12:00,73.0,65.0,29.86,NW,316,2.0,7.0,75,0.00,,,0.02,,2013-08-04 03:12:00,
2013-08-03 23:22:00,73.0,65.0,29.86,NW,316,2.0,7.0,75,0.00,,,0.02,,2013-08-04 03:22:00,
2013-08-03 23:32:00,73.0,65.0,29.86,NW,316,2.0,7.0,75,0.00,,,0.02,,2013-08-04 03:32:00,
2013-08-03 23:42:00,73.0,65.0,29.86,SE,128,0.0,5.0,76,0.00,,,0.02,,2013-08-04 03:42:00,
2013-08-03 23:52:00,72.0,64.0,29.86,NNW,338,0.0,2.0,76,0.00,,,0.02,,2013-08-04 03:52:00,